Weather History for KABE - March, 2012

Change the Weather History Date:

Saturday, March 17, 2012

  Actual Average Record
Temperature  
Mean Temperature 54 °F 39 °F  
Max Temperature 71 °F 50 °F 84 °F (1945)
Min Temperature 36 °F 29 °F 13 °F (1967)
Degree Days  
Heating Degree Days 11 26  
Month to date heating degree days 314 482  
Since 1 July heating degree days 3866 4791  
Cooling Degree Days 0 0  
Month to date cooling degree days 0 0  
Year to date cooling degree days 0 0  
Growing Degree Days 4 (Base 50)    
Moisture  
Dew Point 43 °F    
Average Humidity 71    
Maximum Humidity 100    
Minimum Humidity 41    
Precipitation  
Precipitation 0.00 in 0.12 in 1.30 in (1968)
Month to date precipitation 0.43 1.75  
Year to date precipitation 4.50 7.48  
Snow  
Snow 0.00 in 0.10 in 4.20 in (1967)
Month to date snowfall T 3.4  
Since 1 July snowfall 12.0 30.4  
Snow Depth 0.00 in    
Sea Level Pressure  
Sea Level Pressure 30.27 in    
Wind  
Wind Speed 4 mph (ESE)    
Max Wind Speed 13 mph    
Max Gust Speed 17 mph    
Visibility 4 miles    
Events Fog    
T = Trace of Precipitation, MM = Missing Value Source: NWS Daily Summary

Daily Weather History Graph

Daily Weather History Graph

Search for Another Location

Airport or City:

Trip Planner

Search our weather history database for the weather conditions in past years. The results will help you decide how hot, cold, wet, or windy it might be!

Date:

Astronomy

Mar. 17, 2012 Rise Set
Actual Time 7:09 AM EDT 7:11 PM EDT
Civil Twilight 6:42 AM EDT 7:38 PM EDT
Nautical Twilight 6:10 AM EDT 8:10 PM EDT
Astronomical Twilight 5:38 AM EDT 8:42 PM EDT
Moon 4:10 AM EDT (3/17) 2:31 PM EDT (3/17)
Length of Visible Light 12h 56m
Length of Day
12h 01m
Waning Crescent, 23% of the Moon is Illuminated
Mar 17
Waning Crescent
Mar 22
New
Mar 30
First Quarter
Apr 6
Full
Apr 13
Last Quarter

Hourly Weather History & Observations

Time (EDT) Temp. Windchill Dew Point Humidity Pressure Visibility Wind Dir Wind Speed Gust Speed Precip Events Conditions
12:51 AM 46.0 °F - 44.1 °F 93% 30.20 in 5.0 mi Calm Calm - N/A   Clear
1:51 AM 44.1 °F - 42.1 °F 93% 30.21 in 7.0 mi Calm Calm - N/A   Clear
2:51 AM 45.0 °F - 44.1 °F 97% 30.21 in 5.0 mi Calm Calm - N/A   Clear
3:18 AM 42.8 °F - 41.0 °F 93% 30.20 in 2.0 mi Calm Calm - N/A   Clear
3:26 AM 42.8 °F - 39.2 °F 87% 30.20 in 1.5 mi Calm Calm - N/A   Clear
3:33 AM 42.8 °F - 39.2 °F 87% 30.20 in 3.0 mi Calm Calm - N/A   Partly Cloudy
3:51 AM 39.9 °F 35.8 °F 39.0 °F 97% 30.21 in 3.0 mi NNW 5.8 mph - N/A   Mostly Cloudy
3:54 AM 39.2 °F 35.9 °F 37.4 °F 93% 30.20 in 0.2 mi NNW 4.6 mph - N/A Fog Fog
4:25 AM 39.2 °F - 39.2 °F 100% 30.20 in 0.5 mi Calm Calm - N/A Fog Fog
4:33 AM 39.2 °F - 37.4 °F 93% 30.20 in 0.5 mi Calm Calm - N/A Fog Fog
4:51 AM 39.9 °F - 39.0 °F 97% 30.22 in 0.5 mi Calm Calm - N/A Fog Fog
5:01 AM 41.0 °F - 39.2 °F 93% 30.21 in 0.2 mi Calm Calm - N/A Fog Fog
5:12 AM 39.2 °F - 39.2 °F 100% 30.22 in 0.5 mi Calm Calm - N/A Fog Fog
5:51 AM 39.0 °F - 37.9 °F 96% 30.23 in 0.2 mi Calm Calm - N/A Fog Fog
6:09 AM 37.4 °F - 37.4 °F 100% 30.23 in 0.5 mi Calm Calm - N/A Fog Fog
6:46 AM 37.4 °F - 35.6 °F 93% 30.25 in 0.2 mi Calm Calm - N/A Fog Fog
6:51 AM 37.9 °F - 37.0 °F 97% 30.26 in 0.2 mi Calm Calm - N/A Fog Fog
7:06 AM 39.2 °F - 37.4 °F 93% 30.25 in 0.5 mi Calm Calm - N/A Fog Fog
7:16 AM 39.2 °F - 37.4 °F 93% 30.26 in 0.2 mi Calm Calm - N/A Fog Fog
7:37 AM 37.4 °F - 35.6 °F 93% 30.27 in 1.0 mi Calm Calm - N/A   Mist
7:47 AM 37.4 °F - 37.4 °F 100% 30.28 in 0.2 mi Calm Calm - N/A Fog Fog
7:51 AM 37.9 °F 35.5 °F 36.0 °F 93% 30.29 in 0.2 mi ENE 3.5 mph - N/A Fog Fog
7:58 AM 39.2 °F 37.0 °F 37.4 °F 93% 30.29 in 0.2 mi NNE 3.5 mph - N/A Fog Fog
8:31 AM 42.8 °F - 41.0 °F 93% 30.30 in 0.2 mi Calm Calm - N/A Fog Fog
8:51 AM 45.0 °F - 44.1 °F 97% 30.32 in 0.2 mi Calm Calm - N/A Fog Fog
8:58 AM 44.6 °F - 44.6 °F 100% 30.31 in 0.5 mi Calm Calm - N/A Fog Fog
9:11 AM 46.4 °F - 46.4 °F 100% 30.31 in 1.0 mi Calm Calm - N/A   Mist
9:21 AM 48.2 °F - 46.4 °F 93% 30.31 in 1.0 mi Calm Calm - N/A   Mostly Cloudy
9:28 AM 48.2 °F - 46.4 °F 93% 30.32 in 3.0 mi Calm Calm - N/A   Scattered Clouds
9:37 AM 50.0 °F - 48.2 °F 94% 30.32 in 5.0 mi Calm Calm - N/A   Partly Cloudy
9:51 AM 51.1 °F - 48.0 °F 89% 30.33 in 4.0 mi East 3.5 mph - N/A   Clear
10:33 AM 57.2 °F - 50.0 °F 77% 30.33 in 8.0 mi East 8.1 mph - N/A   Mostly Cloudy
10:51 AM 57.9 °F - 50.0 °F 75% 30.34 in 9.0 mi ENE 8.1 mph - N/A   Scattered Clouds
11:51 AM 61.0 °F - 50.0 °F 67% 30.33 in 10.0 mi Variable 4.6 mph - N/A   Scattered Clouds
11:59 AM 62.6 °F - 50.0 °F 63% 30.33 in 10.0 mi Calm Calm - N/A   Mostly Cloudy
12:08 PM 62.6 °F - 50.0 °F 63% 30.33 in 10.0 mi Calm Calm - N/A   Partly Cloudy
12:51 PM 64.9 °F - 50.0 °F 58% 30.32 in 10.0 mi Variable 3.5 mph - N/A   Clear
1:51 PM 66.9 °F - 48.0 °F 51% 30.30 in 10.0 mi Variable 3.5 mph - N/A   Clear
2:51 PM 70.0 °F - 48.0 °F 46% 30.27 in 10.0 mi ESE 8.1 mph - N/A   Clear
3:51 PM 70.0 °F - 48.0 °F 46% 30.27 in 10.0 mi SW 4.6 mph - N/A   Clear
4:51 PM 71.1 °F - 46.9 °F 42% 30.25 in 10.0 mi SSE 6.9 mph - N/A   Clear
5:51 PM 69.1 °F - 46.9 °F 45% 30.26 in 10.0 mi South 6.9 mph - N/A   Clear
6:51 PM 66.9 °F - 46.9 °F 49% 30.27 in 10.0 mi SE 8.1 mph - N/A   Clear
7:51 PM 64.0 °F - 46.9 °F 54% 30.28 in 10.0 mi SE 4.6 mph - N/A   Clear
8:51 PM 62.1 °F - 48.0 °F 60% 30.30 in 10.0 mi SE 11.5 mph - N/A   Clear
9:51 PM 57.9 °F - 48.0 °F 70% 30.32 in 10.0 mi ESE 4.6 mph - N/A   Clear
10:51 PM 54.0 °F - 46.0 °F 75% 30.33 in 10.0 mi ESE 5.8 mph - N/A   Clear
11:51 PM 52.0 °F - 44.1 °F 74% 30.35 in 10.0 mi SE 4.6 mph - N/A   Clear